Weather in Scottsdale

United States     33°37′58″N   111°51′22″W
temp.,
°C
wind,
m/s
gust,
m/s
humid.,
%
clouds,
%
prec.,
mm/h
press.,
hPa
HPBL,
m
7 may, fri
fri723:00+25w46180 0.0 1012107
02:00+22sse22210 0.0 101211
05:00+19w11220 0.0 101311
08:00+25se11140 0.0 1014441
11:00+29ssw45110 0.0 10121620
14:00+31sw6790 0.0 10092229
17:00+31wnw47835 0.0 10062666
20:00+28wsw812100 0.0 1007317
8 may, sat
sat823:00+22sw3313100 0.0 100829
02:00+20sw111915 0.0 100811
05:00+18s11255 0.0 100911
08:00+23ese12170 0.0 1010544
11:00+27ssw55150 0.0 10101833
14:00+29wsw66130 0.0 10082350
17:00+29wsw45120 0.0 10062518
20:00+25sw22160 0.0 100617
9 may, sun
sun923:00+23wsw33190 0.0 100720
02:00+20ssw12340 0.0 100811
05:00+18s12390 0.0 101011
08:00+22sse22260 0.0 1010665
11:00+26ssw55170 0.0 10101568
14:00+29sw56130 0.0 10072336
17:00+30w47110 0.0 10043150
20:00+26wsw913140 0.0 1004340
10 may, mon
mon1023:00+22sw45140 0.0 100781
02:00+18ese11230 0.0 100811
05:00+17ene22220 0.0 100811
08:00+21sse46170 0.0 1009970
11:00+26ssw67120 0.0 10081973
14:00+28sw57110 0.0 10062156
17:00+29wsw67110 0.0 10042860
20:00+25sw812170 0.0 1006305
11 may, tue
tue1123:00+20sse12200 0.0 100915
02:00+17sse11270 0.0 101011
05:00+16ene11280 0.0 101111
08:00+21ene23210 0.0 1013480
11:00+25s43170 0.0 10121379
14:00+28sw44150 0.0 10102323
17:00+29wsw55150 0.0 10092443
20:00+25ssw22190 0.0 101013